BHE1132 ZSLG-ZUCK

Flight info

Callsign BHE1132
Flight time 2h 16m
Altitude 36100
Route RUX91D RUXEL W178 OF W95 NOBEM W73 MADUK W51 LEGIV W164 ADGOL W50 XSH W80 IRPOG IRPOG3G
Aircraft B737/M-SDE2E3FGHIRWXY/LB1

Departure

Time 2026-04-18 01:17
Airport Lianyungang Huaguoshan International Airport (ZSLG)

Arrival

Time 2026-04-18 03:33
Airport Chongqing Jiangbei International Airport (ZUCK)
Time Latitude Longitude Altitude Speed Heading
2026-04-18 00:53 34.41197 119.18386 16 ft 0 kts 117°
2026-04-18 01:07 34.41199 119.18382 14 ft 3 kts 117°
2026-04-18 01:07 34.41211 119.18353 16 ft 4 kts 117°
2026-04-18 01:08 34.41226 119.18330 18 ft 4 kts 163°
2026-04-18 01:08 34.41247 119.18331 19 ft 3 kts 201°
2026-04-18 01:08 34.41269 119.18340 16 ft 1 kts 201°
2026-04-18 01:08 34.41270 119.18341 16 ft 1 kts 201°
2026-04-18 01:11 34.41269 119.18341 16 ft 0 kts 201°
2026-04-18 01:11 34.41260 119.18336 17 ft 3 kts 202°
2026-04-18 01:11 34.41255 119.18334 17 ft 4 kts 199°
2026-04-18 01:11 34.41223 119.18317 17 ft 7 kts 206°
2026-04-18 01:12 34.41172 119.18286 16 ft 10 kts 206°
2026-04-18 01:12 34.41110 119.18249 16 ft 10 kts 206°
2026-04-18 01:12 34.41049 119.18212 16 ft 10 kts 206°
2026-04-18 01:12 34.40989 119.18176 16 ft 9 kts 206°
2026-04-18 01:13 34.40956 119.18120 16 ft 9 kts 287°
2026-04-18 01:13 34.40985 119.18052 16 ft 9 kts 297°
2026-04-18 01:13 34.41013 119.17985 17 ft 9 kts 297°
2026-04-18 01:13 34.41027 119.17917 18 ft 8 kts 256°
2026-04-18 01:14 34.40985 119.17870 17 ft 9 kts 206°
2026-04-18 01:14 34.40918 119.17829 17 ft 13 kts 206°
2026-04-18 01:14 34.40829 119.17776 17 ft 16 kts 206°
2026-04-18 01:14 34.40721 119.17711 17 ft 19 kts 206°
2026-04-18 01:15 34.40600 119.17637 16 ft 20 kts 206°
2026-04-18 01:15 34.40476 119.17561 16 ft 20 kts 206°
2026-04-18 01:15 34.40355 119.17490 18 ft 19 kts 206°
2026-04-18 01:15 34.40257 119.17432 16 ft 10 kts 206°
2026-04-18 01:16 34.40197 119.17396 16 ft 9 kts 206°
2026-04-18 01:16 34.40139 119.17361 16 ft 9 kts 207°
2026-04-18 01:16 34.40132 119.17295 18 ft 9 kts 302°
2026-04-18 01:16 34.40161 119.17230 19 ft 9 kts 296°
2026-04-18 01:17 34.40194 119.17182 18 ft 5 kts
2026-04-18 01:17 34.40227 119.17202 17 ft 7 kts 27°
2026-04-18 01:17 34.40440 119.17332 17 ft 71 kts 26°
2026-04-18 01:17 34.41091 119.17725 19 ft 135 kts 26°
2026-04-18 01:18 34.42043 119.18302 323 ft 160 kts 27°
2026-04-18 01:18 34.43032 119.18887 1119 ft 159 kts 26°
2026-04-18 01:18 34.44039 119.19485 1896 ft 163 kts 26°
2026-04-18 01:18 34.45051 119.20187 2545 ft 174 kts 40°
2026-04-18 01:19 34.45888 119.21264 3339 ft 178 kts 53°
2026-04-18 01:19 34.46545 119.22682 3655 ft 208 kts 69°
2026-04-18 01:19 34.46861 119.24487 3947 ft 233 kts 89°
2026-04-18 01:19 34.46577 119.26452 4708 ft 239 kts 109°
2026-04-18 01:20 34.45790 119.28215 5673 ft 241 kts 127°
2026-04-18 01:20 34.44519 119.29555 6593 ft 247 kts 148°
2026-04-18 01:20 34.42878 119.30245 7463 ft 256 kts 169°
2026-04-18 01:20 34.41087 119.30124 8365 ft 264 kts 191°
2026-04-18 01:21 34.39405 119.29242 9296 ft 270 kts 207°
2026-04-18 01:21 34.38303 119.28460 9926 ft 273 kts 207°
2026-04-18 01:21 34.36096 119.26946 11053 ft 277 kts 205°
2026-04-18 01:21 34.34378 119.25856 11888 ft 281 kts 204°
2026-04-18 01:22 34.32622 119.24782 12745 ft 284 kts 204°
2026-04-18 01:22 34.30827 119.23696 13423 ft 298 kts 204°
2026-04-18 01:22 34.29530 119.22917 13578 ft 317 kts 204°
2026-04-18 01:22 34.27470 119.21681 13792 ft 344 kts 204°
2026-04-18 01:23 34.25252 119.20348 13995 ft 369 kts 204°
2026-04-18 01:23 34.22916 119.18941 14228 ft 389 kts 204°
2026-04-18 01:23 34.20466 119.17464 14804 ft 397 kts 204°
2026-04-18 01:23 34.17982 119.15969 15614 ft 399 kts 204°
2026-04-18 01:24 34.15513 119.14410 16390 ft 404 kts 211°
2026-04-18 01:24 34.13419 119.12054 17119 ft 412 kts 233°
2026-04-18 01:24 34.12118 119.09019 17876 ft 416 kts 251°
2026-04-18 01:24 34.11652 119.05560 18600 ft 420 kts 268°
2026-04-18 01:25 34.11589 119.02031 19245 ft 423 kts 269°
2026-04-18 01:25 34.11559 118.98421 19859 ft 427 kts 269°
2026-04-18 01:25 34.11499 118.94877 20474 ft 430 kts 268°
2026-04-18 01:25 34.11408 118.91258 21086 ft 432 kts 268°
2026-04-18 01:26 34.10980 118.87671 21633 ft 435 kts 251°
2026-04-18 01:26 34.09636 118.84417 22223 ft 436 kts 233°
2026-04-18 01:26 34.07526 118.81810 22834 ft 435 kts 216°
2026-04-18 01:26 34.04896 118.80026 23426 ft 435 kts 200°
2026-04-18 01:27 34.01951 118.79203 23924 ft 436 kts 187°
2026-04-18 01:27 33.98927 118.78761 24347 ft 439 kts 186°
2026-04-18 01:27 33.95874 118.78361 24740 ft 443 kts 186°
2026-04-18 01:27 33.92803 118.77941 25152 ft 446 kts 187°
2026-04-18 01:28 33.89718 118.77482 25568 ft 448 kts 187°
2026-04-18 01:28 33.86615 118.76999 25982 ft 451 kts 187°
2026-04-18 01:28 33.83493 118.76503 26365 ft 454 kts 188°
2026-04-18 01:28 33.80353 118.75998 26739 ft 456 kts 188°
2026-04-18 01:29 33.77200 118.75489 27107 ft 459 kts 188°
2026-04-18 01:29 33.74028 118.74977 27472 ft 461 kts 188°
2026-04-18 01:29 33.70838 118.74462 27816 ft 464 kts 188°
2026-04-18 01:29 33.67627 118.73947 28140 ft 467 kts 188°
2026-04-18 01:30 33.64401 118.73429 28483 ft 469 kts 188°
2026-04-18 01:30 33.61167 118.72912 28883 ft 469 kts 188°
2026-04-18 01:30 33.57930 118.72394 29407 ft 467 kts 188°
2026-04-18 01:30 33.54718 118.71881 29979 ft 464 kts 188°
2026-04-18 01:31 33.51526 118.71371 30468 ft 462 kts 188°
2026-04-18 01:31 33.48345 118.70863 30913 ft 460 kts 189°
2026-04-18 01:31 33.45177 118.70357 31372 ft 458 kts 189°
2026-04-18 01:31 33.42031 118.69854 31837 ft 455 kts 189°
2026-04-18 01:32 33.38898 118.69351 32282 ft 453 kts 189°
2026-04-18 01:32 33.35783 118.68851 32713 ft 451 kts 190°
2026-04-18 01:32 33.32676 118.68353 33149 ft 449 kts 190°
2026-04-18 01:32 33.29591 118.67859 33591 ft 446 kts 190°
2026-04-18 01:33 33.26522 118.67368 34018 ft 444 kts 191°
2026-04-18 01:33 33.23466 118.66879 34357 ft 442 kts 191°
2026-04-18 01:33 33.20417 118.66392 34637 ft 442 kts 191°
2026-04-18 01:33 33.17373 118.65900 34913 ft 441 kts 192°
2026-04-18 01:34 33.14331 118.65406 35205 ft 440 kts 192°
2026-04-18 01:34 33.11300 118.64912 35522 ft 438 kts 192°
2026-04-18 01:34 33.08285 118.64422 35835 ft 437 kts 192°
2026-04-18 01:34 33.05280 118.63934 36115 ft 436 kts 193°
2026-04-18 01:35 32.99248 118.62954 36175 ft 437 kts 193°
2026-04-18 01:35 32.93237 118.61983 36167 ft 435 kts 193°
2026-04-18 01:36 32.87252 118.61016 36175 ft 433 kts 193°
2026-04-18 01:36 32.81296 118.60054 36172 ft 432 kts 193°
2026-04-18 01:37 32.75342 118.59094 36168 ft 431 kts 193°
2026-04-18 01:37 32.69379 118.58266 36162 ft 436 kts 187°
2026-04-18 01:38 32.63316 118.59034 36155 ft 450 kts 171°
2026-04-18 01:38 32.57276 118.61115 36167 ft 453 kts 170°
2026-04-18 01:39 32.51227 118.63248 36165 ft 453 kts 171°
2026-04-18 01:39 32.45167 118.65327 36163 ft 454 kts 171°
2026-04-18 01:40 32.39091 118.67384 36164 ft 454 kts 171°
2026-04-18 01:40 32.33009 118.69442 36157 ft 454 kts 171°
2026-04-18 01:41 32.26930 118.71497 36157 ft 454 kts 171°
2026-04-18 01:41 32.20854 118.73547 36159 ft 454 kts 172°
2026-04-18 01:42 32.14783 118.75593 36157 ft 453 kts 172°
2026-04-18 01:42 32.08713 118.77636 36153 ft 453 kts 172°
2026-04-18 01:43 32.05667 118.78234 36141 ft 436 kts 188°
2026-04-18 01:43 32.02723 118.77794 36154 ft 421 kts 202°
2026-04-18 01:43 32.00056 118.76498 36166 ft 411 kts 215°
2026-04-18 01:43 31.97761 118.74551 36165 ft 405 kts 225°
2026-04-18 01:44 31.95851 118.72138 36162 ft 402 kts 236°
2026-04-18 01:44 31.94472 118.69288 36170 ft 401 kts 245°
2026-04-18 01:44 31.92236 118.63256 36148 ft 403 kts 246°
2026-04-18 01:45 31.89959 118.57215 36164 ft 405 kts 246°
2026-04-18 01:45 31.87637 118.51168 36151 ft 406 kts 245°
2026-04-18 01:46 31.85303 118.45118 36145 ft 407 kts 245°
2026-04-18 01:46 31.82980 118.39100 36142 ft 407 kts 245°
2026-04-18 01:47 31.80636 118.33036 36144 ft 407 kts 245°
2026-04-18 01:47 31.78287 118.26985 36144 ft 407 kts 245°
2026-04-18 01:48 31.75925 118.20944 36150 ft 407 kts 245°
2026-04-18 01:48 31.73560 118.14896 36143 ft 407 kts 245°
2026-04-18 01:49 31.71410 118.08754 36132 ft 407 kts 254°
2026-04-18 01:49 31.70091 118.02288 36139 ft 407 kts 255°
2026-04-18 01:50 31.68780 117.95815 36153 ft 408 kts 255°
2026-04-18 01:50 31.67447 117.89342 36146 ft 408 kts 255°
2026-04-18 01:51 31.66103 117.82871 36139 ft 408 kts 255°
2026-04-18 01:51 31.64755 117.76397 36145 ft 408 kts 255°
2026-04-18 01:52 31.63403 117.69926 36146 ft 408 kts 255°
2026-04-18 01:52 31.62048 117.63451 36147 ft 409 kts 255°
2026-04-18 01:53 31.60691 117.56976 36134 ft 409 kts 256°
2026-04-18 01:54 31.58964 117.47169 36136 ft 410 kts 258°
2026-04-18 01:54 31.57843 117.40617 36143 ft 410 kts 257°
2026-04-18 01:55 31.56694 117.34066 36137 ft 410 kts 257°
2026-04-18 01:55 31.55537 117.27517 36139 ft 410 kts 257°
2026-04-18 01:56 31.54376 117.21012 36147 ft 410 kts 257°
2026-04-18 01:56 31.53203 117.14464 36143 ft 411 kts 257°
2026-04-18 01:57 31.52027 117.07912 36138 ft 411 kts 257°
2026-04-18 01:57 31.50849 117.01362 36138 ft 411 kts 257°
2026-04-18 01:58 31.49668 116.94811 36147 ft 411 kts 257°
2026-04-18 01:58 31.48429 116.88264 36131 ft 411 kts 253°
2026-04-18 01:59 31.46138 116.82133 36134 ft 413 kts 242°
2026-04-18 01:59 31.42755 116.76669 36136 ft 415 kts 235°
2026-04-18 02:00 31.39204 116.71331 36134 ft 415 kts 235°
2026-04-18 02:00 31.35676 116.65967 36149 ft 415 kts 235°
2026-04-18 02:01 31.32163 116.60605 36141 ft 415 kts 235°
2026-04-18 02:01 31.28652 116.55245 36144 ft 415 kts 235°
2026-04-18 02:02 31.25135 116.49869 36130 ft 417 kts 235°
2026-04-18 02:02 31.21635 116.44527 36142 ft 416 kts 235°
2026-04-18 02:03 31.18091 116.39127 36132 ft 416 kts 235°
2026-04-18 02:03 31.14595 116.33807 36145 ft 415 kts 235°
2026-04-18 02:04 31.11076 116.28456 36139 ft 415 kts 236°
2026-04-18 02:04 31.07553 116.23117 36148 ft 415 kts 235°
2026-04-18 02:05 31.04026 116.17798 36144 ft 414 kts 236°
2026-04-18 02:05 31.00505 116.12495 36141 ft 413 kts 235°
2026-04-18 02:06 30.96985 116.07197 36137 ft 413 kts 235°
2026-04-18 02:06 30.93465 116.01904 36125 ft 413 kts 235°
2026-04-18 02:07 30.89949 115.96624 36131 ft 412 kts 236°
2026-04-18 02:07 30.86434 115.91353 36129 ft 412 kts 236°
2026-04-18 02:08 30.82931 115.86074 36132 ft 412 kts 236°
2026-04-18 02:08 30.79444 115.80792 36133 ft 412 kts 236°
2026-04-18 02:09 30.75973 115.75536 36133 ft 413 kts 236°
2026-04-18 02:09 30.72474 115.70245 36120 ft 413 kts 236°
2026-04-18 02:10 30.68967 115.64951 36121 ft 413 kts 236°
2026-04-18 02:10 30.66031 115.60522 36120 ft 413 kts 236°
2026-04-18 02:11 30.62522 115.55238 36126 ft 413 kts 236°
2026-04-18 02:11 30.59016 115.49964 36118 ft 413 kts 236°
2026-04-18 02:12 30.55507 115.44692 36117 ft 412 kts 236°
2026-04-18 02:12 30.52021 115.39460 36116 ft 412 kts 236°
2026-04-18 02:13 30.48514 115.34203 36122 ft 412 kts 236°
2026-04-18 02:13 30.45347 115.28730 36112 ft 406 kts 250°
2026-04-18 02:14 30.44053 115.22409 36117 ft 404 kts 266°
2026-04-18 02:14 30.44529 115.15907 36118 ft 406 kts 275°
2026-04-18 02:15 30.45260 115.09414 36114 ft 407 kts 275°
2026-04-18 02:15 30.45968 115.02901 36120 ft 407 kts 275°
2026-04-18 02:16 30.46651 114.96383 36120 ft 407 kts 275°
2026-04-18 02:16 30.47321 114.89861 36115 ft 408 kts 275°
2026-04-18 02:17 30.47987 114.83332 36117 ft 408 kts 275°
2026-04-18 02:17 30.48651 114.76795 36112 ft 408 kts 275°
2026-04-18 02:18 30.49312 114.70253 36107 ft 408 kts 275°
2026-04-18 02:18 30.49970 114.63712 36102 ft 409 kts 275°
2026-04-18 02:19 30.50625 114.57166 36100 ft 409 kts 275°
2026-04-18 02:19 30.51277 114.50614 36100 ft 409 kts 275°
2026-04-18 02:20 30.51927 114.44054 36097 ft 409 kts 275°
2026-04-18 02:20 30.52573 114.37500 36104 ft 409 kts 275°
2026-04-18 02:21 30.53212 114.30980 36105 ft 409 kts 275°
2026-04-18 02:21 30.53856 114.24379 36102 ft 409 kts 275°
2026-04-18 02:22 30.54488 114.17874 36106 ft 409 kts 275°
2026-04-18 02:22 30.55114 114.11317 36103 ft 409 kts 275°
2026-04-18 02:23 30.55699 114.04752 36101 ft 409 kts 275°
2026-04-18 02:23 30.56320 113.98197 36101 ft 409 kts 275°
2026-04-18 02:24 30.56931 113.91639 36095 ft 409 kts 275°
2026-04-18 02:24 30.57537 113.85069 36097 ft 409 kts 275°
2026-04-18 02:25 30.57582 113.78482 36098 ft 409 kts 268°
2026-04-18 02:25 30.57312 113.71889 36094 ft 409 kts 268°
2026-04-18 02:26 30.57051 113.65298 36093 ft 409 kts 268°
2026-04-18 02:26 30.56801 113.58705 36096 ft 409 kts 268°
2026-04-18 02:27 30.56553 113.52115 36096 ft 409 kts 268°
2026-04-18 02:27 30.56302 113.45526 36098 ft 409 kts 268°
2026-04-18 02:28 30.56047 113.38930 36102 ft 409 kts 268°
2026-04-18 02:28 30.55790 113.32345 36105 ft 408 kts 268°
2026-04-18 02:29 30.55529 113.25763 36100 ft 408 kts 268°
2026-04-18 02:29 30.55266 113.19182 36105 ft 408 kts 268°
2026-04-18 02:30 30.54997 113.12605 36106 ft 408 kts 268°
2026-04-18 02:30 30.54717 113.06028 36109 ft 408 kts 268°
2026-04-18 02:31 30.54435 112.99450 36110 ft 408 kts 268°
2026-04-18 02:31 30.54152 112.92873 36113 ft 408 kts 268°
2026-04-18 02:32 30.53867 112.86343 36111 ft 408 kts 268°
2026-04-18 02:32 30.53583 112.79768 36109 ft 408 kts 268°
2026-04-18 02:33 30.53296 112.73186 36117 ft 408 kts 268°
2026-04-18 02:33 30.53006 112.66608 36114 ft 408 kts 268°
2026-04-18 02:34 30.52713 112.60030 36118 ft 408 kts 268°
2026-04-18 02:34 30.52416 112.53448 36116 ft 408 kts 268°
2026-04-18 02:35 30.52115 112.46872 36122 ft 408 kts 268°
2026-04-18 02:35 30.51812 112.40293 36117 ft 408 kts 268°
2026-04-18 02:36 30.51505 112.33717 36119 ft 408 kts 268°
2026-04-18 02:36 30.51196 112.27142 36125 ft 408 kts 268°
2026-04-18 02:37 30.50882 112.20565 36129 ft 408 kts 268°
2026-04-18 02:37 30.50566 112.13996 36127 ft 408 kts 268°
2026-04-18 02:38 30.50246 112.07424 36129 ft 408 kts 268°
2026-04-18 02:38 30.49923 112.00853 36128 ft 408 kts 268°
2026-04-18 02:39 30.49597 111.94280 36131 ft 408 kts 268°
2026-04-18 02:39 30.49267 111.87707 36135 ft 408 kts 268°
2026-04-18 02:40 30.48934 111.81132 36133 ft 408 kts 268°
2026-04-18 02:40 30.48599 111.74558 36133 ft 409 kts 268°
2026-04-18 02:41 30.48257 111.67979 36131 ft 409 kts 268°
2026-04-18 02:41 30.47902 111.61396 36133 ft 409 kts 268°
2026-04-18 02:42 30.47545 111.54815 36129 ft 409 kts 268°
2026-04-18 02:42 30.47165 111.48231 36134 ft 410 kts 265°
2026-04-18 02:43 30.46266 111.41699 36133 ft 411 kts 262°
2026-04-18 02:43 30.45322 111.35169 36132 ft 411 kts 263°
2026-04-18 02:44 30.44415 111.28623 36130 ft 411 kts 263°
2026-04-18 02:44 30.43508 111.22084 36130 ft 411 kts 263°
2026-04-18 02:45 30.42598 111.15556 36134 ft 410 kts 263°
2026-04-18 02:45 30.41686 111.09035 36133 ft 410 kts 263°
2026-04-18 02:46 30.40779 111.02564 36138 ft 410 kts 263°
2026-04-18 02:46 30.39862 110.96060 36142 ft 409 kts 263°
2026-04-18 02:47 30.38944 110.89568 36152 ft 408 kts 263°
2026-04-18 02:47 30.38025 110.83076 36152 ft 408 kts 263°
2026-04-18 02:48 30.37103 110.76586 36145 ft 409 kts 263°
2026-04-18 02:48 30.36177 110.70104 36151 ft 408 kts 263°
2026-04-18 02:49 30.35249 110.63626 36151 ft 408 kts 263°
2026-04-18 02:49 30.34317 110.57145 36159 ft 408 kts 263°
2026-04-18 02:50 30.33381 110.50668 36159 ft 409 kts 263°
2026-04-18 02:50 30.32443 110.44188 36151 ft 408 kts 263°
2026-04-18 02:51 30.31501 110.37709 36172 ft 409 kts 263°
2026-04-18 02:51 30.30555 110.31221 36154 ft 409 kts 263°
2026-04-18 02:52 30.29598 110.24728 36167 ft 410 kts 263°
2026-04-18 02:52 30.28641 110.18207 36161 ft 411 kts 263°
2026-04-18 02:53 30.27689 110.11728 36157 ft 411 kts 263°
2026-04-18 02:53 30.26727 110.05222 36163 ft 410 kts 263°
2026-04-18 02:54 30.25754 109.98724 36166 ft 410 kts 263°
2026-04-18 02:54 30.24792 109.92217 36148 ft 410 kts 263°
2026-04-18 02:55 30.23821 109.85714 36168 ft 410 kts 263°
2026-04-18 02:55 30.23011 109.80315 36171 ft 410 kts 263°
2026-04-18 02:56 30.22003 109.73821 36167 ft 411 kts 262°
2026-04-18 02:56 30.20475 109.64072 36178 ft 413 kts 263°
2026-04-18 02:57 30.19227 109.57600 36148 ft 412 kts 257°
2026-04-18 02:57 30.17549 109.51299 36154 ft 408 kts 257°
2026-04-18 02:58 30.15904 109.45051 36149 ft 405 kts 257°
2026-04-18 02:58 30.14256 109.38766 36155 ft 413 kts 257°
2026-04-18 02:59 30.12560 109.32404 36141 ft 414 kts 257°
2026-04-18 02:59 30.10864 109.26043 36160 ft 415 kts 257°
2026-04-18 03:00 30.09157 109.19657 36153 ft 417 kts 257°
2026-04-18 03:00 30.07422 109.13270 36144 ft 416 kts 256°
2026-04-18 03:01 30.05684 109.06908 36144 ft 415 kts 256°
2026-04-18 03:01 30.03954 109.00563 36138 ft 414 kts 256°
2026-04-18 03:02 30.02236 108.94236 36153 ft 413 kts 257°
2026-04-18 03:02 30.00576 108.87898 36149 ft 411 kts 257°
2026-04-18 03:03 29.98934 108.81617 36151 ft 411 kts 257°
2026-04-18 03:03 29.97272 108.75307 36146 ft 411 kts 257°
2026-04-18 03:04 29.95609 108.69007 36145 ft 411 kts 257°
2026-04-18 03:04 29.93936 108.62708 36150 ft 411 kts 257°
2026-04-18 03:05 29.92264 108.56411 36150 ft 411 kts 257°
2026-04-18 03:05 29.90589 108.50110 36147 ft 411 kts 257°
2026-04-18 03:06 29.88906 108.43804 36132 ft 412 kts 257°
2026-04-18 03:06 29.87218 108.37498 36104 ft 412 kts 257°
2026-04-18 03:07 29.85531 108.31206 36100 ft 410 kts 257°
2026-04-18 03:07 29.83851 108.24948 36129 ft 408 kts 257°
2026-04-18 03:08 29.82166 108.18688 36119 ft 411 kts 257°
2026-04-18 03:08 29.80468 108.12387 36108 ft 414 kts 257°
2026-04-18 03:09 29.79607 108.09198 35847 ft 418 kts 256°
2026-04-18 03:09 29.78745 108.06010 35596 ft 417 kts 257°
2026-04-18 03:09 29.77882 108.02823 35359 ft 417 kts 257°
2026-04-18 03:09 29.77029 107.99675 35122 ft 419 kts 257°
2026-04-18 03:10 29.76160 107.96469 34888 ft 420 kts 257°
2026-04-18 03:10 29.75321 107.93202 34628 ft 419 kts 262°
2026-04-18 03:10 29.75003 107.89939 34394 ft 415 kts 270°
2026-04-18 03:10 29.74841 107.86622 34174 ft 415 kts 270°
2026-04-18 03:11 29.74676 107.83297 33934 ft 417 kts 270°
2026-04-18 03:11 29.74500 107.79967 33660 ft 418 kts 270°
2026-04-18 03:11 29.74310 107.76626 33383 ft 419 kts 269°
2026-04-18 03:11 29.74112 107.73274 33134 ft 420 kts 269°
2026-04-18 03:12 29.73907 107.69917 32872 ft 421 kts 269°
2026-04-18 03:12 29.73704 107.66560 32229 ft 422 kts 270°
2026-04-18 03:12 29.73502 107.63174 31288 ft 423 kts 270°
2026-04-18 03:12 29.73293 107.59786 30275 ft 427 kts 270°
2026-04-18 03:13 29.73080 107.56371 29109 ft 430 kts 270°
2026-04-18 03:13 29.72864 107.52949 28315 ft 425 kts 270°
2026-04-18 03:13 29.72647 107.49570 27520 ft 420 kts 270°
2026-04-18 03:13 29.72433 107.46247 26765 ft 415 kts 270°
2026-04-18 03:14 29.72222 107.42951 26023 ft 411 kts 270°
2026-04-18 03:14 29.72013 107.39690 25293 ft 407 kts 270°
2026-04-18 03:14 29.71807 107.36453 24567 ft 404 kts 270°
2026-04-18 03:14 29.71601 107.33237 23809 ft 403 kts 270°
2026-04-18 03:15 29.71396 107.30035 22975 ft 401 kts 270°
2026-04-18 03:15 29.71189 107.26847 22177 ft 398 kts 270°
2026-04-18 03:15 29.70984 107.23689 21422 ft 395 kts 270°
2026-04-18 03:15 29.70783 107.20598 20680 ft 391 kts 269°
2026-04-18 03:16 29.70580 107.17493 19942 ft 387 kts 269°
2026-04-18 03:16 29.70378 107.14422 19211 ft 384 kts 269°
2026-04-18 03:16 29.70178 107.11369 18468 ft 381 kts 269°
2026-04-18 03:16 29.69977 107.08339 17646 ft 379 kts 269°
2026-04-18 03:17 29.69778 107.05333 17106 ft 370 kts 268°
2026-04-18 03:17 29.69585 107.02463 16939 ft 352 kts 269°
2026-04-18 03:17 29.69401 106.99728 16785 ft 335 kts 269°
2026-04-18 03:17 29.69226 106.97110 16656 ft 321 kts 269°
2026-04-18 03:18 29.69059 106.94603 16515 ft 309 kts 269°
2026-04-18 03:18 29.68896 106.92187 16379 ft 297 kts 269°
2026-04-18 03:18 29.68738 106.89861 16252 ft 286 kts 269°
2026-04-18 03:18 29.68733 106.87631 16030 ft 275 kts 284°
2026-04-18 03:19 29.69227 106.85515 15657 ft 273 kts 289°
2026-04-18 03:19 29.69784 106.83438 15339 ft 272 kts 289°
2026-04-18 03:19 29.70045 106.81277 14954 ft 279 kts 267°
2026-04-18 03:19 29.69465 106.79141 14581 ft 286 kts 243°
2026-04-18 03:20 29.68126 106.77414 14152 ft 297 kts 219°
2026-04-18 03:20 29.66237 106.76391 13760 ft 304 kts 201°
2026-04-18 03:20 29.64203 106.75692 13301 ft 306 kts 199°
2026-04-18 03:20 29.62155 106.75016 12882 ft 304 kts 199°
2026-04-18 03:21 29.60176 106.74361 12510 ft 294 kts 199°
2026-04-18 03:21 29.58222 106.73698 12177 ft 285 kts 199°
2026-04-18 03:21 29.56345 106.73050 11832 ft 278 kts 199°
2026-04-18 03:21 29.54516 106.72416 11504 ft 271 kts 199°
2026-04-18 03:22 29.52754 106.71807 11203 ft 265 kts 199°
2026-04-18 03:22 29.51009 106.71202 10879 ft 259 kts 199°
2026-04-18 03:22 29.49311 106.70614 10610 ft 250 kts 199°
2026-04-18 03:22 29.47674 106.70048 10274 ft 240 kts 199°
2026-04-18 03:23 29.46107 106.69507 9987 ft 231 kts 199°
2026-04-18 03:23 29.44595 106.68983 9675 ft 223 kts 199°
2026-04-18 03:23 29.43138 106.68480 9397 ft 213 kts 198°
2026-04-18 03:23 29.41741 106.67999 9297 ft 208 kts 198°
2026-04-18 03:24 29.40369 106.67525 9230 ft 204 kts 198°
2026-04-18 03:24 29.39001 106.67055 9133 ft 206 kts 199°
2026-04-18 03:24 29.37637 106.66575 9031 ft 203 kts 204°
2026-04-18 03:24 29.36645 106.65506 8953 ft 199 kts 242°
2026-04-18 03:25 29.36241 106.63966 8676 ft 209 kts 273°
2026-04-18 03:25 29.36568 106.62353 8512 ft 209 kts 285°
2026-04-18 03:25 29.36983 106.60756 8243 ft 207 kts 285°
2026-04-18 03:25 29.37387 106.59215 8103 ft 199 kts 285°
2026-04-18 03:26 29.37785 106.57693 7860 ft 200 kts 287°
2026-04-18 03:26 29.38538 106.56359 7613 ft 206 kts 328°
2026-04-18 03:26 29.39878 106.56032 7545 ft 206 kts
2026-04-18 03:26 29.41297 106.56334 7317 ft 214 kts
2026-04-18 03:27 29.42765 106.56647 7069 ft 216 kts 12°
2026-04-18 03:27 29.44209 106.57053 6792 ft 214 kts 15°
2026-04-18 03:27 29.45623 106.57515 6540 ft 210 kts 17°
2026-04-18 03:27 29.47003 106.57989 6320 ft 205 kts 18°
2026-04-18 03:28 29.48376 106.58473 6044 ft 207 kts 18°
2026-04-18 03:28 29.49759 106.58954 5772 ft 208 kts 18°
2026-04-18 03:28 29.51138 106.59440 5493 ft 212 kts 17°
2026-04-18 03:28 29.52580 106.59944 5211 ft 216 kts 18°
2026-04-18 03:29 29.54004 106.60442 4920 ft 217 kts 17°
2026-04-18 03:29 29.55446 106.60952 4662 ft 217 kts 17°
2026-04-18 03:29 29.56902 106.61459 4375 ft 219 kts 18°
2026-04-18 03:29 29.58335 106.61954 4067 ft 204 kts 18°
2026-04-18 03:30 29.59642 106.62417 3830 ft 189 kts 19°
2026-04-18 03:30 29.60876 106.62854 3594 ft 181 kts 18°
2026-04-18 03:30 29.62046 106.63253 3378 ft 172 kts 17°
2026-04-18 03:30 29.63139 106.63660 3116 ft 159 kts 22°
2026-04-18 03:31 29.64161 106.64019 2924 ft 152 kts 19°
2026-04-18 03:31 29.65172 106.64371 2748 ft 150 kts 19°
2026-04-18 03:31 29.66146 106.64710 2550 ft 143 kts 19°
2026-04-18 03:31 29.67091 106.65031 2446 ft 142 kts 19°
2026-04-18 03:32 29.68045 106.65370 2225 ft 145 kts 20°
2026-04-18 03:32 29.69005 106.65709 2011 ft 143 kts 19°
2026-04-18 03:32 29.69921 106.66035 1780 ft 135 kts 20°
2026-04-18 03:32 29.70835 106.66360 1612 ft 141 kts 19°
2026-04-18 03:33 29.71770 106.66684 1430 ft 138 kts 18°
2026-04-18 03:33 29.72660 106.66990 1340 ft 125 kts 17°
2026-04-18 03:33 29.73354 106.67229 1329 ft 83 kts 16°
2026-04-18 03:33 29.73763 106.67369 1328 ft 40 kts 13°
2026-04-18 03:34 29.73947 106.67370 1324 ft 17 kts 359°
2026-04-18 03:34 29.74060 106.67358 1321 ft 14 kts 348°
2026-04-18 03:34 29.74105 106.67347 1321 ft 2 kts 347°
2026-04-18 03:34 29.74131 106.67340 1320 ft 6 kts 348°
2026-04-18 03:35 29.74189 106.67326 1319 ft 11 kts 348°
2026-04-18 03:35 29.74278 106.67302 1316 ft 16 kts 309°
2026-04-18 03:35 29.74312 106.67177 1313 ft 16 kts 285°
2026-04-18 03:35 29.74341 106.67056 1314 ft 15 kts 285°
2026-04-18 03:36 29.74364 106.66955 1315 ft 11 kts 285°
2026-04-18 03:36 29.74381 106.66881 1316 ft 10 kts 282°
2026-04-18 03:36 29.74331 106.66838 1317 ft 10 kts 195°
2026-04-18 03:36 29.74268 106.66816 1317 ft 9 kts 201°
2026-04-18 03:37 29.74204 106.66791 1318 ft 11 kts 197°
2026-04-18 03:37 29.74127 106.66764 1318 ft 13 kts 197°
2026-04-18 03:37 29.74032 106.66732 1319 ft 14 kts 196°
2026-04-18 03:37 29.73940 106.66702 1320 ft 14 kts 196°
2026-04-18 03:38 29.73852 106.66672 1320 ft 13 kts 197°
2026-04-18 03:38 29.73766 106.66642 1321 ft 13 kts 197°
2026-04-18 03:38 29.73683 106.66613 1322 ft 12 kts 195°
2026-04-18 03:38 29.73617 106.66575 1323 ft 10 kts 240°
2026-04-18 03:39 29.73615 106.66501 1324 ft 10 kts 230°
2026-04-18 03:39 29.73554 106.66474 1325 ft 9 kts 197°
2026-04-18 03:39 29.73508 106.66429 1326 ft 9 kts 246°
2026-04-18 03:39 29.73518 106.66360 1327 ft 9 kts 288°
2026-04-18 03:40 29.73536 106.66295 1329 ft 8 kts 287°
2026-04-18 03:40 29.73506 106.66258 1330 ft 7 kts 197°
2026-04-18 03:40 29.73459 106.66241 1330 ft 7 kts 197°
2026-04-18 03:40 29.73442 106.66235 1330 ft 0 kts 197°